Location: Marysville Observatory
(48.1092°N, 122.1645°W)
Time: 09:19:18
(UTC-08:00)

ISS - Visible Passes

Search period start: 24 February 2017 00:00
Search period end: 06 March 2017 00:00
Orbit: 399 x 408 km, 51.6° (Epoch: 24 February)

Date Brightness Start Highest point End Pass type
(mag) Time Alt. Az. Time Alt. Az. Time Alt. Az.
01 Mar -0.5 06:12:19 10° S 06:14:41 18° SE 06:17:03 10° E visible
02 Mar -0.2 05:21:26 10° SSE 05:22:20 11° SE 05:23:14 10° ESE visible
03 Mar -1.8 06:02:39 10° SSW 06:05:41 35° SE 06:08:44 10° ENE visible
04 Mar -1.1 05:10:47 11° S 05:13:14 21° SE 05:15:49 10° E visible
05 Mar -0.5 04:20:35 13° SE 04:20:49 13° SE 04:22:25 10° ESE visible
05 Mar -3.0 05:53:29 10° SW 05:56:46 66° SSE 06:00:03 10° ENE visible
